Hourly Data Report for October 17, 2015

All times are specified in Local Standard Time (LST). Add 1 hour to adjust for Daylight Saving Time where and when it is observed.

CLYDE RIVER A
NUNAVUT

70°29'09.000" N
68°31'01.000" W
26.50 m
2400804
71090
YCY

Download Data

Hourly Data (October 2015)
Hourly Data Report for October 17, 2015
Temp Definition
°C
Dew Point Temp Definition
°C
Rel Hum Definition
%
Wind Dir Definition
10's deg

Wind Spd Definition
km/h
Visibility Definition
km
Stn Press Definition
kPa
Hmdx Definition


Wind Chill Definition


Weather Definition


TIME
00:00 Legend Double Dagger -9.8 -13.6 74 30 26 16.1 99.87   -19 LegendNANA
01:00 Legend Double Dagger -9.1 -13.2 73 30 30 16.1 99.88   -18 LegendNANA
02:00 Legend Double Dagger -8.9 -12.4 76 31 24 16.1 99.90   -17 LegendNANA
03:00 Legend Double Dagger -9.0 -12.4 77 30 21 16.1 99.92   -17 LegendNANA
04:00 Legend Double Dagger -8.8 -12.3 76 28 18 16.1 99.96   -16 LegendNANA
05:00 Legend Double Dagger -8.8 -12.1 77 29 24 16.1 99.96   -17 LegendNANA
06:00 Legend Double Dagger -8.3 -11.7 77 29 22 16.1 99.96   -16 LegendNANA
07:00 Legend Double Dagger -8.3 -11.5 78 28 18 16.1 99.97   -15 LegendNANA
08:00 Legend Double Dagger -7.9 -11.1 78 30 17 16.1 99.99   -15 Snow
09:00 Legend Double Dagger -8.0 -11.2 78 29 17 16.1 99.99   -15 LegendNANA
10:00 Legend Double Dagger -7.9 -11.2 77 30 21 16.1 99.95   -15 LegendNANA
11:00 Legend Double Dagger -8.3 -11.3 79 30 21 16.1 99.95   -16 LegendNANA
12:00 Legend Double Dagger -8.1 -11.3 78 29 18 16.1 99.95   -15 LegendNANA
13:00 Legend Double Dagger -7.5 -10.7 78 30 11 16.1 99.98   -13 LegendNANA
14:00 Legend Double Dagger -7.8 -11.0 78 29 18 16.1 99.97   -15 LegendNANA
15:00 Legend Double Dagger -7.6 -11.0 77 27 11 16.1 100.02   -13 LegendNANA
16:00 Legend Double Dagger -7.7 -10.9 78 30 13 16.1 100.04   -13 LegendNANA
17:00 Legend Double Dagger -7.4 -10.8 77 28 8 16.1 100.06   -11 LegendNANA
18:00 Legend Double Dagger -7.7 -10.4 81 LegendMM 4 16.1 100.08   -10 LegendNANA
19:00 Legend Double Dagger -7.9 -10.8 80 29 8 16.1 100.10   -12 LegendNANA
20:00 Legend Double Dagger -7.7 -10.5 81 29 17 16.1 100.11   -14 Snow
21:00 Legend Double Dagger -7.6 -10.6 79 29 17 16.1 100.14   -14 Snow
22:00 Legend Double Dagger -7.8 -10.2 83 30 17 6.4 100.15   -14 Snow
23:00 Legend Double Dagger -7.5 -10.1 82 28 15 16.1 100.18   -14 LegendNANA

Notes on Data Quality.

Legend

  • E = Estimated
  • M = Missing
  • NA = Not Available
  • ‡ = Partner data that is not subject to review by the National Climate Archives
Date modified: